Regional Weather Roundup
Issued by NWS

Home | Current Version | Previous Version | Graphics & Text | Print | Product List | Glossary On
Versions: 1 2 3 4 5 6 7 8 9 10 11 12 13 14 15 16 17 18 19 20 21 22 23 24 25 26 27 28 29 30 31 32 33 34 35 36 37 38 39 40 41 42 43 44 45 46 47 48 49 50
000
ASUS43 KMPX 030401
RWRMN
WEATHER ROUNDUP FOR MINNESOTA
NATIONAL WEATHER SERVICE TWIN CITIES/CHANHASSEN MN
1100 PM CDT TUE JUN 02 2015


NOTE: "FAIR" INDICATES FEW OR NO CLOUDS BELOW 12,000 FEET WITH NO
SIGNIFICANT WEATHER AND/OR OBSTRUCTIONS TO VISIBILITY. N/A MEANS
CURRENT SKY AND/OR WEATHER CONDITIONS ARE NOT AVAILABLE.

MNZ060>063-068>070-030500-
   Twin Cities Metro

CITY           SKY/WX    TMP DP  RH WIND       PRES   REMARKS
TWIN CITIES    PTCLDY    68  52  56 SE8       29.93R
ST PAUL        CLEAR     65  53  65 S6        29.93R
CRYSTAL        CLEAR     70  52  52 S10       29.90R
BLAINE         CLEAR     70  54  56 S9        29.92R
LAKEVILLE      CLEAR     64  52  63 S5        29.93R
EDEN PRAIRIE   CLEAR     66  53  63 S8        29.91R
SOUTH ST PAUL  CLEAR     67  51  55 S5        29.92R
LAKE ELMO      FAIR      64  52  63 SE5       29.94R
$$
MNZ001>005-007-008-013>017-022>024-027-028-030500-
   Northwest Minnesota

CITY           SKY/WX    TMP DP  RH WIND       PRES   REMARKS
BEMIDJI        MOCLDY    63  54  72 SE10      29.78F
HALLOCK        CLOUDY    63  61  94 NE10      29.78F
ROSEAU         LGT RAIN  61  55  82 E6        29.80F
WARROAD        RAIN      59  55  88 E7        29.82S
THIEF RVR FALL CLOUDY    61  59  94 E16       29.78F
CROOKSTON      CLOUDY    63  61  94 E13       29.74F
FOSSTON        LGT RAIN  64  57  77 SE6       29.74F
DETROIT LAKES  CLOUDY    72  57  60 S14       29.75F
MOORHEAD       CLOUDY    73  63  68 S15       29.68F
PARK RAPIDS    CLOUDY    68  52  56 SE12      29.78S
MAHNOMEN       FAIR      67  56  67 SE13      29.73S
$$
MNZ006-009>011-018-025>026-030500-
   North Central Minnesota

CITY           SKY/WX    TMP DP  RH WIND       PRES   REMARKS
BAUDETTE       RAIN      60  58  92 CALM      29.84F FOG
FLAG ISLAND    LGT RAIN  59  57  94 CALM      29.83R
INTL FALLS     LGT RAIN  58  56  93 SE3       29.86R
WASKISH        TSTM      61  57  88 CALM      29.84R
BIG FORK       CLOUDY    64  55  72 S9G16     29.83F
LONGVILLE      MOCLDY    64  54  68 SE13      29.82F
GRAND RAPIDS   CLOUDY    64  52  63 SE13G22   29.86F
CRANE LAKE     TSTM      57  55  94 CALM      29.90F
COOK           TSTM      64  55  72 S6        29.88R
WALKER         FAIR      65  54  65 SE6       29.80S
$$
MNZ012-019>021-037-030500-
   Northeast Minnesota

CITY           SKY/WX    TMP DP  RH WIND       PRES   REMARKS
DULUTH         MOCLDY    52  40  63 SE9       29.92F
ELY            CLOUDY    63  50  63 S6        29.90F
HIBBING        CLOUDY    63  52  67 S9        29.87F
EVELETH        CLOUDY    61  48  63 S8        29.89F
DULUTH HARBOR  MOCLDY    46  43  87 NE7       29.94F
TWO HARBORS    CLOUDY    57  48  72 CALM      29.91F
SILVER BAY     LGT RAIN  54  45  71 CALM      29.92F
GRAND MARAIS     N/A     51  43  74 CALM      29.94F
G MARAIS ARPRT CLOUDY    54  34  47 CALM      29.97F
$$
MNZ029>031-032-039>041-046>048-054>057-064-030500-
   West Central Minnesota

CITY           SKY/WX    TMP DP  RH WIND       PRES   REMARKS
FERGUS FALLS   CLOUDY    72  57  60 S16       29.74S
WHEATON        MOCLDY    72  61  68 SE15      29.73F
MORRIS         PTCLDY    72  57  60 SE17      29.77F
ALEXANDRIA     CLOUDY    69  55  60 S16G24    29.82F
ELBOW LAKE     FAIR      70  58  66 SE18G25   29.75F
WADENA         CLOUDY    70  54  56 S18       29.78F
GLENWOOD       PTCLDY    70  55  60 S17       29.82F
APPLETON       PTCLDY    72  55  56 SE8       29.78F
BENSON         PTCLDY    72  54  53 S14G22    29.80F
ORTONVILLE     PTCLDY    72  61  68 SE9       29.77S
MADISON        PTCLDY    70  59  68 SE10      29.79F
WILLMAR        FAIR      72  55  56 S14       29.85F
$$
MNZ033>034-036-042>043-049>051-058-059-030500-
   Central Minnesota

CITY           SKY/WX    TMP DP  RH WIND       PRES   REMARKS
ST CLOUD       PTCLDY    65  52  62 SE8       29.88R
SAUK CENTRE    MOCLDY    67  53  59 SE10      29.84F
PAYNESVILLE    MOCLDY    66  51  58 E10       29.87F
AITKIN         CLOUDY    66  54  63 SE10      29.85F
PINE RIVER     MOCLDY    64  55  72 SE12      29.86F
BRAINERD       CLOUDY    68  52  56 S12G22    29.85F
STAPLES        MOCLDY    70  50  49 SE10      29.82S
LONG PRAIRIE   MOCLDY    68  50  52 SE14G20   29.84F
LITTLE FALLS   CLOUDY    68  50  52 SE10      29.84F
LITCHFIELD     CLEAR     70  52  52 S7        29.88F
BUFFALO        CLEAR     68  50  52 SE7       29.91R
MAPLE LAKE     CLEAR     68  55  61 SE6       29.90S
$$
MNZ037-044-045-052-053-030500-
   East Central Minnesota

CITY           SKY/WX    TMP DP  RH WIND       PRES   REMARKS
PRINCETON      CLOUDY    68  54  60 SE5       29.90F
MORA           MOCLDY    64  52  63 SE6       29.91F
CAMBRIDGE      PTCLDY    68  54  60 SE5       29.89S
RUSH CITY      PTCLDY    65  53  65 S6        29.91S
MOOSE LAKE     PTCLDY    64  52  63 CALM      29.88F
HINCKLEY       FAIR      64  54  68 SE5       29.91F
CLOQUET        PTCLDY    50  43  76 E5        29.91F
MCGREGOR       MOCLDY    64  54  68 SE12      29.88F
$$
MNZ071>073-080-081-089-090-097-098-030500-
   Southwest Minnesota

CITY           SKY/WX    TMP DP  RH WIND       PRES   REMARKS
MONTEVIDEO     PTCLDY    72  55  56 S15G21    29.82F
GRANITE FALLS  PTCLDY    69  56  61 SE16G22   29.85F
CANBY          PTCLDY    72  61  67 S9        29.80F
MARSHALL       PTCLDY    70  54  56 S18       29.82F
REDWOOD FALLS  PTCLDY    70  54  56 S17       29.86R
OLIVIA         PTCLDY    68  52  56 S13       29.86F
PIPESTONE      MOCLDY    70  59  68 S15       29.85S
WINDOM         CLEAR     66  55  68 S18G24    29.87F
WORTHINGTON    CLEAR     66  54  63 S17G24    29.87F
JACKSON        CLEAR     66  55  68 S16G22    29.91F
TRACY          PTCLDY    69  57  64 S14G22    29.86R
SLAYTON        PTCLDY    66  56  69 S15       29.87S
$$
MNZ065>067-074>077-082>085-091>093-030500-
   South Central Minnesota

CITY           SKY/WX    TMP DP  RH WIND       PRES   REMARKS
MANKATO        CLEAR     68  52  56 S13G21    29.92R
NEW ULM        CLEAR     66  54  63 S13       29.90R
ST JAMES       CLEAR     70  55  60 SE17      29.91F
FAIRMONT       MOCLDY    66  50  55 S17       29.93R
GLENCOE        CLEAR     70  55  59 S7G18     29.90R
FARIBAULT      CLEAR     66  54  63 S10G18    29.94S
OWATONNA       CLEAR     66  52  59 S12       29.94S
WASECA         CLEAR     64  52  63 S16       29.95S
ALBERT LEA     CLEAR     66  54  63 S13G18    29.95S
$$
MNZ078>079-086>088-094>096-030500-
   Southeast Minnesota

CITY           SKY/WX    TMP DP  RH WIND       PRES   REMARKS
ROCHESTER      CLEAR     62  50  64 S12       29.98S
RED WING       PTCLDY    66  52  59 SE6       29.94S
STANTON        CLEAR     67  52  59 S8        29.92S
DODGE CENTER   CLEAR     63  52  67 S9        29.96R
WINONA         PTCLDY    61  52  72 SE5       29.98S
AUSTIN         CLEAR     61  54  77 S8        29.97R
PRESTON        PTCLDY    61  49  65 S7        29.99S
$$
ABBREVIATIONS USED IN REMARKS
   TC - TEMPERATURES IN CELSIUS
  WCI - WIND CHILL INDEX
   HX - HEAT INDEX
  VSB - VISIBILITY
$$


USA.gov is the U.S. government's official web portal to all federal, state and local government web resources and services.